This is the latest recevied weather packets stored in our database for station/object K7SPS-10. If no packets are shown the sender has not sent any weather packets the latest 10 day(s).
| Time | Temp. | Humidity | Pressure | Rain* | Wind** | Luminosity | Snow |
|---|---|---|---|---|---|---|---|
| 1778404857 | 8.33° C | 75% | 1018.5 hPa | 0 mm | - | 0 W/m² | - |
| 1778404555 | 8.89° C | 75% | 1018.4 hPa | 0 mm | - | 0 W/m² | - |
| 1778404251 | 9.44° C | 73% | 1018.4 hPa | 0 mm | - | 0 W/m² | - |
| 1778403948 | 9.44° C | 72% | 1018.5 hPa | 0 mm | - | 0 W/m² | - |
| 1778403643 | 9.44° C | 73% | 1018.5 hPa | 0 mm | - | 0 W/m² | - |
| 1778403338 | 9.44° C | 73% | 1018.4 hPa | 0 mm | - | 0 W/m² | - |
| 1778403035 | 10° C | 73% | 1018.3 hPa | 0 mm | - | 0 W/m² | - |
| 1778402732 | 10° C | 72% | 1018.4 hPa | 0 mm | - | 0 W/m² | - |
| 1778402428 | 9.44° C | 74% | 1018.4 hPa | 0 mm | - | 0 W/m² | - |
| 1778402125 | 9.44° C | 75% | 1018.3 hPa | 0 mm | - | 0 W/m² | - |
| 1778401821 | 10° C | 74% | 1018.5 hPa | 0 mm | - | 0 W/m² | - |
| 1778401518 | 10° C | 74% | 1018.4 hPa | 0 mm | - | 0 W/m² | - |
| 1778401219 | 10° C | 73% | 1018.4 hPa | 0 mm | - | 0 W/m² | - |
| 1778400914 | 10° C | 74% | 1018.7 hPa | 0 mm | - | 0 W/m² | - |
| 1778400610 | 10° C | 73% | 1018.6 hPa | 0 mm | - | 0 W/m² | - |
| 1778400309 | 10° C | 72% | 1018.3 hPa | 0 mm | - | 0 W/m² | - |
| 1778400006 | 10° C | 71% | 1018.7 hPa | 0 mm | - | 0 W/m² | - |
| 1778399704 | 10° C | 70% | 1018.6 hPa | 0 mm | - | 0 W/m² | - |
| 1778399400 | 10° C | 70% | 1018.4 hPa | 0 mm | - | 0 W/m² | - |
| 1778399098 | 10° C | 69% | 1018.5 hPa | 0 mm | - | 0 W/m² | - |
| 1778398793 | 10° C | 68% | 1018.5 hPa | 0 mm | - | 0 W/m² | - |
| 1778398489 | 11.11° C | 66% | 1018.5 hPa | 0 mm | - | 0 W/m² | - |
| 1778398186 | 10.56° C | 67% | 1018.6 hPa | 0 mm | - | 0 W/m² | - |
| 1778397883 | 10.56° C | 69% | 1018.4 hPa | 0 mm | - | 0 W/m² | - |
| 1778397578 | 10.56° C | 68% | 1018.4 hPa | 0 mm | - | 0 W/m² | - |
* Rain latest hour (hover to see other rain measurements)
** Current wind speed in m/s (hover to see current wind gust speed)